| time (UTC) | temp F | wind direction | speed knots | gust knots | rain 1hr in | rain 24hr in | rain mn in | humidity % | barometer mb |
| 20260903213020 | 56 | 212 | 0.0 | 5.2 | 0.00 | 0.03 | 0.03 | 94 | 1009.4 |
| 20260903211513 | 56 | 214 | 0.0 | 4.3 | 0.00 | 0.03 | 0.03 | 93 | 1009.4 |
| 20260903210119 | 56 | 214 | 1.7 | 6.1 | 0.00 | 0.03 | 0.03 | 91 | 1009.3 |
| 20260903204554 | 57 | 183 | 4.3 | 11.3 | 0.00 | 0.03 | 0.03 | 88 | 1009.2 |
| 20260903203037 | 60 | 209 | 6.1 | 13.0 | 0.00 | 0.03 | 0.03 | 82 | 1009.1 |
| 20260903201535 | 62 | 155 | 4.3 | 16.5 | 0.00 | 0.03 | 0.03 | 75 | 1008.8 |
| 20260903200017 | 62 | 208 | 4.3 | 14.8 | 0.00 | 0.03 | 0.03 | 75 | 1008.8 |
| 20260903194532 | 62 | 229 | 7.0 | 13.0 | 0.00 | 0.04 | 0.03 | 75 | 1008.9 |
| 20260903193058 | 61 | 185 | 5.2 | 12.2 | 0.00 | 0.04 | 0.03 | 79 | 1008.9 |
| 20260903191557 | 61 | 164 | 4.3 | 14.8 | 0.01 | 0.04 | 0.03 | 80 | 1009.0 |
| 20260903190039 | 60 | 205 | 2.6 | 9.6 | 0.01 | 0.04 | 0.03 | 83 | 1009.1 |
| 20260903184548 | 60 | 170 | 6.1 | 13.9 | 0.01 | 0.04 | 0.03 | 83 | 1009.2 |
| 20260903183020 | 60 | 210 | 6.1 | 13.0 | 0.01 | 0.04 | 0.03 | 86 | 1009.1 |
| 20260903181520 | 59 | 196 | 3.5 | 9.6 | 0.00 | 0.03 | 0.02 | 91 | 1008.9 |
| 20260903180006 | 58 | 175 | 0.0 | 5.2 | 0.00 | 0.03 | 0.02 | 93 | 1008.9 |
| 20260903174504 | 58 | 186 | 2.6 | 7.0 | 0.00 | 0.03 | 0.02 | 94 | 1009.0 |
| 20260903173049 | 57 | 184 | 0.0 | 6.1 | 0.00 | 0.03 | 0.02 | 95 | 1008.9 |
| 20260903171551 | 56 | 163 | 2.6 | 7.0 | 0.00 | 0.03 | 0.02 | 95 | 1008.9 |
| 20260903170058 | 55 | 198 | 0.0 | 0.0 | 0.00 | 0.03 | 0.02 | 95 | 1009.2 |
| 20260903164548 | 55 | 189 | 0.0 | 0.0 | 0.01 | 0.03 | 0.02 | 95 | 1009.2 |
| 20260903163047 | 55 | 174 | 3.5 | 8.7 | 0.01 | 0.03 | 0.02 | 95 | 1009.3 |
| 20260903161546 | 55 | 185 | 2.6 | 7.8 | 0.01 | 0.03 | 0.02 | 95 | 1009.2 |
| 20260903160048 | 55 | 181 | 0.9 | 6.1 | 0.01 | 0.03 | 0.02 | 95 | 1009.2 |
| 20260903154544 | 55 | 188 | 4.3 | 9.6 | 0.00 | 0.02 | 0.01 | 95 | 1009.1 |
| 20260903153042 | 55 | 194 | 1.7 | 8.7 | 0.00 | 0.02 | 0.01 | 95 | 1009.2 |
| 20260903151541 | 55 | 194 | 2.6 | 8.7 | 0.00 | 0.02 | 0.01 | 95 | 1009.1 |
| 20260903150020 | 55 | 190 | 3.5 | 8.7 | 0.00 | 0.02 | 0.01 | 95 | 1008.9 |
| 20260903144532 | 55 | 191 | 1.7 | 9.6 | 0.00 | 0.02 | 0.01 | 95 | 1008.9 |
| 20260903143105 | 55 | 189 | 0.0 | 8.7 | 0.00 | 0.02 | 0.01 | 95 | 1008.7 |
| 20260903141609 | 55 | 186 | 3.5 | 9.6 | 0.00 | 0.02 | 0.01 | 95 | 1008.6 |
| 20260903140041 | 55 | 200 | 2.6 | 7.8 | 0.00 | 0.02 | 0.01 | 95 | 1008.6 |
| 20260903134545 | 55 | 198 | 0.0 | 7.8 | 0.00 | 0.02 | 0.01 | 95 | 1008.4 |
| 20260903133018 | 55 | 205 | 0.9 | 7.0 | 0.00 | 0.02 | 0.01 | 94 | 1008.4 |
| 20260903131516 | 55 | 165 | 1.7 | 7.0 | 0.00 | 0.02 | 0.01 | 94 | 1008.4 |
| 20260903130058 | 55 | 199 | 0.0 | 7.8 | 0.00 | 0.02 | 0.01 | 93 | 1008.4 |
| 20260903124556 | 56 | 181 | 0.9 | 7.0 | 0.00 | 0.02 | 0.01 | 92 | 1008.4 |
| 20260903123042 | 56 | 179 | 1.7 | 6.1 | 0.00 | 0.02 | 0.01 | 91 | 1008.4 |
| 20260903121553 | 56 | 188 | 4.3 | 8.7 | 0.00 | 0.02 | 0.01 | 90 | 1008.5 |
| 20260903120019 | 56 | 185 | 2.6 | 12.2 | 0.00 | 0.02 | 0.01 | 90 | 1008.4 |
| 20260903114519 | 56 | 187 | 2.6 | 7.0 | 0.00 | 0.02 | 0.01 | 90 | 1008.5 |
| 20260903113100 | 56 | 195 | 3.5 | 9.6 | 0.00 | 0.02 | 0.01 | 90 | 1008.5 |
| 20260903111557 | 56 | 198 | 2.6 | 7.8 | 0.00 | 0.02 | 0.01 | 91 | 1008.3 |
| 20260903110039 | 56 | 175 | 0.0 | 6.1 | 0.00 | 0.02 | 0.01 | 91 | 1008.5 |
| 20260903104550 | 56 | 171 | 2.6 | 7.8 | 0.00 | 0.02 | 0.01 | 92 | 1008.5 |
| 20260903103020 | 56 | 213 | 2.6 | 8.7 | 0.00 | 0.02 | 0.01 | 92 | 1008.5 |
| 20260903101518 | 56 | 248 | 2.6 | 7.8 | 0.00 | 0.02 | 0.01 | 92 | 1008.6 |
| 20260903100117 | 56 | 194 | 1.7 | 7.0 | 0.00 | 0.02 | 0.01 | 92 | 1008.3 |
| 20260903094609 | 56 | 205 | 1.7 | 7.0 | 0.00 | 0.02 | 0.01 | 92 | 1008.4 |
| 20260903093102 | 56 | 211 | 2.6 | 7.8 | 0.00 | 0.02 | 0.01 | 92 | 1008.4 |
| 20260903091551 | 56 | 196 | 2.6 | 8.7 | 0.00 | 0.02 | 0.01 | 92 | 1008.4 |
| 20260903090038 | 56 | 212 | 3.5 | 7.0 | 0.00 | 0.02 | 0.01 | 92 | 1008.5 |
| 20260903084519 | 56 | 190 | 3.5 | 7.8 | 0.00 | 0.02 | 0.01 | 93 | 1008.6 |
| 20260903083018 | 56 | 178 | 0.0 | 7.0 | 0.00 | 0.02 | 0.01 | 93 | 1008.6 |
| 20260903081600 | 56 | 192 | 3.5 | 7.8 | 0.00 | 0.02 | 0.01 | 93 | 1008.5 |
| 20260903080057 | 56 | 191 | 3.5 | 7.0 | 0.01 | 0.02 | 0.01 | 93 | 1008.6 |
| 20260903074541 | 56 | 184 | 2.6 | 7.0 | 0.01 | 0.02 | 0.01 | 93 | 1008.7 |
| 20260903073038 | 56 | 192 | 3.5 | 7.8 | 0.01 | 0.02 | 0.01 | 92 | 1008.6 |
| 20260903071517 | 57 | 194 | 5.2 | 10.4 | 0.01 | 0.02 | 0.01 | 92 | 1008.5 |
| 20260903070015 | 57 | 193 | 2.6 | 8.7 | 0.00 | 0.01 | 0.00 | 92 | 1008.5 |
| 20260903064555 | 57 | 184 | 1.7 | 10.4 | 0.00 | 0.01 | 0.00 | 92 | 1008.4 |
| 20260903063053 | 57 | 187 | 1.7 | 7.8 | 0.00 | 0.01 | 0.00 | 92 | 1008.4 |
| 20260903061536 | 57 | 197 | 0.0 | 7.8 | 0.00 | 0.01 | 0.00 | 93 | 1008.6 |
| 20260903060040 | 57 | 177 | 2.6 | 8.7 | 0.00 | 0.01 | 0.00 | 93 | 1008.6 |
| 20260903054519 | 57 | 182 | 1.7 | 10.4 | 0.00 | 0.01 | 0.00 | 93 | 1008.6 |
| 20260903053017 | 57 | 202 | 2.6 | 7.8 | 0.00 | 0.01 | 0.00 | 93 | 1008.7 |
| 20260903051605 | 57 | 173 | 1.7 | 6.1 | 0.00 | 0.01 | 0.00 | 94 | 1008.5 |
| 20260903050055 | 57 | 183 | 2.6 | 6.1 | 0.00 | 0.01 | 0.00 | 94 | 1008.4 |
| 20260903044542 | 57 | 186 | 0.9 | 7.0 | 0.00 | 0.01 | 0.00 | 94 | 1008.4 |
| 20260903043040 | 57 | 188 | 0.9 | 5.2 | 0.00 | 0.01 | 0.00 | 94 | 1008.3 |
| 20260903041539 | 57 | 188 | 0.0 | 4.3 | 0.00 | 0.01 | 0.00 | 93 | 1008.1 |
| 20260903040036 | 58 | 192 | 0.0 | 0.0 | 0.00 | 0.01 | 0.00 | 92 | 1007.9 |
| 20260903034533 | 58 | 192 | 0.0 | 6.1 | 0.00 | 0.01 | 0.00 | 91 | 1007.6 |
| 20260903033031 | 58 | 194 | 0.9 | 6.1 | 0.00 | 0.01 | 0.00 | 91 | 1007.5 |
| 20260903031538 | 59 | 182 | 0.0 | 8.7 | 0.00 | 0.01 | 0.00 | 90 | 1007.4 |
| 20260903030025 | 60 | 178 | 0.9 | 6.1 | 0.00 | 0.01 | 0.00 | 89 | 1007.2 |
| 20260903024504 | 61 | 210 | 0.0 | 4.3 | 0.00 | 0.01 | 0.00 | 89 | 1007.0 |
| 20260903023002 | 61 | 210 | 0.0 | 7.0 | 0.00 | 0.01 | 0.00 | 85 | 1007.0 |
| 20260903021547 | 62 | 227 | 0.0 | 6.1 | 0.00 | 0.01 | 0.00 | 84 | 1006.6 |
| 20260903020038 | 62 | 215 | 0.0 | 6.1 | 0.00 | 0.01 | 0.00 | 84 | 1006.6 |
| 20260903014518 | 63 | 226 | 0.9 | 7.0 | 0.00 | 0.01 | 0.01 | 83 | 1006.5 |
| 20260903013020 | 63 | 225 | 2.6 | 9.6 | 0.00 | 0.01 | 0.01 | 83 | 1006.5 |
| 20260903011611 | 64 | 196 | 2.6 | 7.8 | 0.00 | 0.01 | 0.01 | 84 | 1006.3 |
| 20260903004542 | 62 | 183 | 1.7 | 7.8 | 0.00 | 0.04 | 0.01 | 89 | 1006.1 |
| 20260903003046 | 62 | 199 | 2.6 | 6.1 | 0.00 | 0.04 | 0.01 | 89 | 1006.1 |
| 20260903001523 | 63 | 207 | 1.7 | 7.0 | 0.00 | 0.04 | 0.01 | 88 | 1006.0 |
| 20260903000037 | 62 | 210 | 3.5 | 10.4 | 0.00 | 0.04 | 0.01 | 94 | 1006.0 |
| 20260902234509 | 61 | 203 | 0.0 | 5.2 | 0.00 | 0.04 | 0.01 | 96 | 1005.8 |
| 20260902233005 | 60 | 207 | 0.9 | 7.8 | 0.00 | 0.04 | 0.01 | 95 | 1006.0 |
| 20260902231550 | 60 | 205 | 0.9 | 7.8 | 0.00 | 0.04 | 0.01 | 95 | 1005.9 |
| 20260902224529 | 59 | 247 | 1.7 | 8.7 | 0.00 | 0.04 | 0.01 | 94 | 1005.7 |
| 20260902223029 | 60 | 245 | 3.5 | 9.6 | 0.00 | 0.04 | 0.01 | 92 | 1005.4 |
| 20260902221516 | 59 | 213 | 0.9 | 7.8 | 0.00 | 0.04 | 0.01 | 93 | 1005.4 |
| 20260902220022 | 59 | 187 | 0.9 | 13.0 | 0.00 | 0.04 | 0.01 | 93 | 1005.3 |
| 20260902214605 | 59 | 193 | 6.1 | 14.8 | 0.00 | 0.04 | 0.01 | 93 | 1005.2 |